Home > Weather > Seoul > Past weeks

Flag for South Korea Weather for the Past 2 Weeks in Seoul, South Korea

Now
46 °F

Fog.


Feels Like: 42 °F
Forecast: 20 / 48 °F
Wind: 9 mph from Southwest

Location: Seoul / Kimp'O International Airport

Current Time: Feb 13, 2016 at 11:03:10 PM

Latest Report: Feb 13, 2016 at 10:00 PM


Visibility: 3 mi

Pressure: 29.56 "Hg

Humidity: 93%

Dew point: 45 °F

Location of SeoulLocation

Historic Weather in Seoul — Graph

°F

Seoul Temperature Yesterday

Maximum temperature yesterday: 50 °F (at 1:00 PM)
Minimum temperature yesterday: 46 °F (at 12:00 AM)
Average temperature yesterday: 48 °F

High & Low Weather Summary for the Past Weeks

 TemperatureHumidityPressure
High59 °F (Feb 13, 2:00 PM)94% (Feb 12, 3:00 PM)30.45 "Hg (Feb 12, 3:00 PM)
Low9 °F (Feb 2, 6:00 AM)12% (Feb 5, 3:00 PM)29.50 "Hg (Feb 13, 5:54 PM)
Average31 °F51%30.22 "Hg
* Reported Jan 29 10:00 PM — Feb 13 10:00 PM, Seoul, Weather by CustomWeather, © 2016

Note: Actual official high and low records may vary slightly from our data, if they occured in-between our weather recording intervals... More about our weather records

Advertising

Seoul Weather History for the Previous 24 Hours

 ConditionsComfort  
Time TempWeatherWind HumidityBarometerVisibility
10:00 PM
Sat, Feb 13
46 °FFog.9 mph93%29.56 "Hg3 mi
9:00 PM50 °FLight rain. Mostly cloudy.8 mph88%29.53 "Hg4 mi
8:00 PM52 °FLight rain. Mostly cloudy.17 mph88%29.56 "Hg4 mi
7:00 PM57 °FHeavy rain. Fog.10 mph88%29.53 "Hg2 mi
6:00 PM57 °FThunderstorms. Fog.8 mph88%29.50 "Hg3 mi
5:54 PM55 °FThunderstorms. Fog.7 mph88%29.50 "Hg3 mi
5:00 PM57 °FLight rain. Mostly cloudy.7 mph82%29.53 "Hg4 mi
4:00 PM57 °FLight rain. Mostly cloudy.16 mph82%29.53 "Hg4 mi
3:00 PM59 °FMostly cloudy.13 mph77%29.59 "Hg4 mi
2:00 PM59 °FMostly cloudy.12 mph77%29.65 "Hg4 mi
1:00 PM57 °FMostly cloudy.10 mph82%29.74 "Hg4 mi
12:00 PM57 °FMostly cloudy.9 mph82%29.80 "Hg4 mi
11:00 AM57 °FFog.8 mph88%29.83 "Hg3 mi
10:00 AM52 °FFog.2 mph94%29.86 "Hg2 mi
9:47 AM52 °FFog.3 mph94%29.89 "Hg2 mi
9:00 AM48 °FFog.2 mph94%29.89 "Hg1 mi
8:00 AM46 °FMostly cloudy.1 mph93%29.89 "Hg1 mi
7:00 AM46 °FCool.1 mph93%29.89 "Hg1 mi
6:00 AM46 °FCool.3 mph93%29.89 "Hg1 mi
5:00 AM46 °FCool.3 mph93%29.89 "Hg1 mi
4:00 AM46 °FCool.1 mph93%29.92 "Hg1 mi
3:00 AM48 °FCool.1 mph94%29.95 "Hg1 mi
2:00 AM46 °FCool.1 mph93%29.95 "Hg1 mi
1:00 AM48 °FCool.2 mph94%29.98 "Hg1 mi
12:00 AM50 °FFog.2 mph94%29.98 "Hg1 mi
11:00 PM
Fri, Feb 12
50 °FFog.7 mph94%29.98 "Hg1 mi
Weather by CustomWeather, © 2016

See weather overviewHow to use our weather pages